Simultaneous Nadir Overpasses (SNOs) Predictions

Prediction of SNOs between LANDSAT-8 and NOAA-19 Satellite Orbit:

Table of predicted SNOs for the next 14.0 days since TLE Epoch: 12/17/2023
Index Date (LANDSAT-8) Time (LANDSAT-8) Lat,Lon (LANDSAT-8) SZA (LANDSAT-8 ) Date (NOAA-19) Time (NOAA-19) Lat,Lon (NOAA-19) SZA (NOAA-19 ) Distance(km) Time Diff (sec)
1 12/17/2023 22:34:06 -80.90, 58.14 73.99 12/17/2023 22:33:51 -80.89, 58.31 73.98 3.05 15
2 12/20/2023 04:57:18 -80.88, -37.86 73.99 12/20/2023 04:57:05 -80.89, -37.76 73.98 1.87 13
3 12/22/2023 11:20:29 -80.88,-133.61 74.00 12/22/2023 11:20:18 -80.89,-133.52 73.99 1.58 11
4 12/24/2023 17:43:40 -80.88, 130.55 74.05 12/24/2023 17:43:31 -80.89, 130.67 74.04 2.17 9
5 12/27/2023 00:06:50 -80.90, 34.95 74.12 12/27/2023 00:06:44 -80.88, 34.80 74.14 3.11 6



Historial Predications of SNOs between LANDSAT-8 and NOAA-19
